[[{"header":{"parameterUnit":"m.s-1","parameterCategory":1,"la1":30.2991,"la2":30.254,"lo1":-89.0895,"lo2":-89.0444,"dy":0.0017,"dx":0.0017,"nx":28,"ny":28,"refTime":"2025-03-31T03:00:00:Z","depth":0,"parameterNumber":2,"parameterNumberName":"U-component_of_WINDS"},"data":[0,0,0,0,0,0,0,0,0,0,0,0,0,0,0,0,0,0,0,0,0,0,0,0,0,0,0,0,0,0,0,0,0,0,0,0,0,0,0,0,0,0,0,0,0,0,0,0,0,0,0,0,0,0,0,0,0,0,-3.284,-3.2841,0,-3.2931,-3.2932,-3.2933,-3.2938,-3.2937,-3.2936,-3.2935,-3.3028,-3.3032,-3.3035,0,0,0,0,0,0,0,0,0,0,0,0,0,-3.2671,-3.2674,-3.284,-3.2841,-3.2842,-3.293,-3.2932,-3.2933,-3.2938,-3.2937,-3.2936,-3.2935,-3.3027,-3.3031,-3.3036,0,0,0,0,0,0,0,0,0,0,0,0,0,-3.2752,-3.2675,-3.2839,-3.2855,-3.2858,-3.293,-3.2932,-3.2933,-3.2939,-3.2937,-3.2936,-3.2934,-3.3026,-3.3031,-3.3036,-3.3099,0,0,-3.3052,-3.3054,0,0,0,0,0,0,0,0,-3.2747,-3.2758,-3.2852,-3.2854,-3.2857,-3.2921,-3.2907,-3.2989,-3.2939,-3.2908,-3.2935,-3.2933,-3.2994,-3.3002,-3.3022,-3.3104,-3.3108,-3.3052,-3.3056,-3.3058,-3.3059,0,0,0,0,0,0,0,-3.2742,-3.2754,-3.2876,-3.2853,-3.2856,-3.2858,-3.2868,-3.2922,-3.2959,-3.291,-3.2911,-3.2922,-3.2995,-3.3017,-3.3025,-3.3109,-3.3052,-3.3057,-3.306,-3.3062,-3.3247,-3.3248,0,0,0,0,0,0,-3.2733,-3.2749,-3.2873,-3.2878,-3.2797,-3.2862,-3.2873,-3.2902,-3.2958,-3.2965,-3.2923,-3.2922,-3.3009,-3.3018,-3.3028,-3.3105,-3.3058,-3.3063,-3.3066,-3.3245,-3.3247,-3.3249,0,0,0,0,0,0,-3.2729,-3.2744,-3.2869,-3.2814,-3.283,-3.2867,-3.29,-3.2905,-3.2927,-3.2968,-3.2974,-3.2939,-3.3008,-3.3021,-3.3081,-3.3108,-3.3065,-3.307,-3.3243,-3.3245,-3.3248,-3.3259,0,0,0,0,0,0,-3.2724,-3.2742,-3.2766,-3.2815,-3.2833,-3.2921,-3.2901,-3.2908,-3.2936,-3.2935,-3.2984,-3.2991,-3.3008,-3.3074,-3.3087,-3.3114,-3.3074,-3.324,-3.3244,-3.3247,-3.3256,-3.3262,-3.3266,0,0,0,0,0,-3.2718,-3.2766,-3.2768,-3.2782,-3.2864,-3.2922,-3.2933,-3.2952,-3.2938,-3.2962,-3.2989,-3.2989,-3.3104,-3.308,-3.3094,-3.3124,-3.3239,-3.3243,-3.3247,-3.3254,-3.3261,-3.3266,0,0,0,0,0,0,-3.272,-3.2772,-3.2775,-3.2839,-3.2876,-3.2923,-3.2954,-3.2958,-3.3,-3.2997,-3.3019,-3.303,-3.309,-3.3114,-3.3086,-3.3188,-3.317,-3.3177,-3.317,-3.3177,-3.3182,-3.3174,-3.3078,0,0,0,0,0,-3.2728,-3.2771,-3.2815,-3.2867,-3.2886,-3.2917,-3.2943,-3.2955,-3.2994,-3.3009,-3.304,-3.3078,-3.3123,-3.3151,-3.3195,-3.3261,-3.3271,-3.3289,-3.3294,-3.3297,-3.3303,-3.3339,-3.3347,-3.3262,-3.3262,-3.3262,0,0,-3.2744,-3.2778,-3.2804,-3.2869,-3.2898,-3.2942,-3.293,-3.2977,-3.301,-3.3017,-3.3075,-3.31,-3.3144,-3.3207,-3.3237,-3.3228,-3.3329,-3.3303,-3.3305,-3.3309,-3.3344,-3.3352,-3.3359,-3.3265,-3.3264,-3.3264,0,0,-3.2796,-3.2827,-3.2874,-3.2905,-3.295,-3.2971,-3.2982,-3.3029,-3.3045,-3.3105,-3.3111,-3.3151,-3.3227,-3.3258,-3.3284,-3.3349,-3.3351,-3.3363,-3.3388,-3.3423,-3.343,-3.3436,-3.3458,-3.3466,-3.3369,-3.3369,-3.3369,0,-3.2811,-3.2877,-3.2898,-3.2945,-3.2973,-3.2982,-3.303,-3.3058,-3.3116,-3.3135,-3.3125,-3.3222,-3.3252,-3.3322,-3.3339,-3.336,-3.3373,-3.3356,-3.3427,-3.3433,-3.3439,-3.3461,-3.3469,-3.337,-3.337,-3.3369,-3.3369,0,-3.2892,-3.2938,-3.2971,-3.3026,-3.3058,-3.3106,-3.3133,-3.3164,-3.3173,-3.3195,-3.3256,-3.3293,-3.3344,-3.3362,-3.3372,-3.3434,-3.3428,-3.3423,-3.3404,-3.3448,-3.3468,-3.3477,-3.3371,-3.3371,-3.337,-3.337,0,0,-3.2946,-3.3013,-3.3024,-3.3049,-3.3101,-3.3137,-3.3185,-3.3235,-3.326,-3.33,-3.334,-3.3406,-3.3401,-3.3431,-3.3444,-3.3475,-3.3524,-3.3466,-3.3468,-3.3474,-3.3594,-3.3596,-3.3605,-3.3526,-3.3528,-3.3529,-3.359,0,-3.3002,-3.3087,-3.3108,-3.318,-3.3223,-3.3233,-3.3275,-3.3311,-3.3334,-3.3373,-3.3398,-3.3443,-3.3435,-3.3453,-3.3484,-3.3511,-3.3548,-3.3507,-3.3563,-3.3565,-3.355,-3.3616,-3.3618,-3.3674,-3.3598,-3.36,-3.3601,0,-3.3079,-3.3121,-3.3197,-3.3244,-3.3262,-3.3299,-3.3347,-3.3385,-3.3427,-3.3441,-3.3474,-3.3485,-3.3536,-3.3517,-3.3586,-3.3558,-3.3583,-3.36,-3.3603,-3.3607,-3.3584,-3.362,-3.3692,-3.3699,-3.3614,-3.3613,-3.3612,0,-3.3108,-3.3184,-3.3239,-3.3261,-3.3317,-3.3342,-3.3367,-3.3408,-3.3436,-3.3478,-3.3497,-3.3545,-3.357,-3.3607,-3.363,-3.3614,-3.3698,-3.3681,-3.3711,-3.371,-3.3726,-3.3724,-3.38,-3.3745,-3.3745,-3.3745,-3.3745,0,-3.3168,-3.3214,-3.3253,-3.3287,-3.3339,-3.3363,-3.3415,-3.344,-3.3476,-3.3515,-3.3528,-3.3564,-3.3594,-3.3635,-3.3654,-3.3708,-3.372,-3.3733,-3.3737,-3.373,-3.3729,-3.3745,-3.3741,-3.3747,-3.3746,-3.3746,-3.3746,0,-3.3209,-3.3237,-3.3298,-3.3346,-3.3359,-3.3395,-3.3437,-3.3471,-3.3494,-3.3543,-3.3556,-3.3593,-3.3642,-3.367,-3.3731,-3.3744,-3.3804,-3.3807,-3.379,-3.3791,-3.3818,-3.3815,-3.3906,-3.3919,-3.3857,-3.3858,-3.3858,0,-3.3244,-3.328,-3.3332,-3.3359,-3.3384,-3.3427,-3.3457,-3.3483,-3.3513,-3.3564,-3.3591,-3.3641,-3.3681,-3.3759,-3.3791,-3.3838,-3.3842,-3.3871,-3.3849,-3.3841,-3.384,-3.3837,-3.384,-3.3874,-3.3874,-3.3875,-3.3875,0,-3.3303,-3.3315,-3.3357,-3.3404,-3.3439,-3.3477,-3.3515,-3.3537,-3.3569,-3.3603,-3.3652,-3.3684,-3.3747,-3.3796,-3.3846,-3.3872,-3.3879,-3.3882,-3.3891,-3.3884,-3.3871,-3.3877,-3.3798,-3.3879,-3.3879,-3.3879,-3.3878,-3.3878,-3.3341,-3.3373,-3.3415,-3.3461,-3.3492,-3.3528,-3.3562,-3.359,-3.3632,-3.3684,-3.3698,-3.375,-3.3792,-3.386,-3.3887,-3.3929,-3.3923,-3.3937,-3.394,-3.3942,-3.3942,-3.3867,-3.3938,-3.3938,-3.3938,-3.3938,-3.3938,0,-3.3399,-3.3427,-3.3469,-3.3522,-3.3559,-3.3563,-3.3606,-3.3636,-3.3682,-3.372,-3.376,-3.3818,-3.3866,-3.3902,-3.3951,-3.3977,-3.3982,-3.3989,-3.3986,-3.3992,-3.3945,-3.3931,-3.3985,-3.3985,-3.3985,-3.3985,-3.3985,-3.3985,-3.3434,-3.3488,-3.3505,-3.3576,-3.3603,-3.3654,-3.3678,-3.3711,-3.3742,-3.3805,-3.3845,-3.3869,-3.3907,-3.3959,-3.4003,-3.4013,-3.4029,-3.4036,-3.4046,-3.4001,-3.3995,-3.399,-3.3978,-3.404,-3.404,-3.4089,-3.409,-3.409]},{"header":{"parameterUnit":"m.s-1","parameterCategory":1,"la1":30.2991,"la2":30.254,"lo1":-89.0895,"lo2":-89.0444,"dy":0.0017,"dx":0.0017,"nx":28,"ny":28,"refTime":"2025-03-31T03:00:00:Z","depth":0,"parameterNumber":3,"parameterNumberName":"V-component_of_WINDS"},"data":[0,0,0,0,0,0,0,0,0,0,0,0,0,0,0,0,0,0,0,0,0,0,0,0,0,0,0,0,0,0,0,0,0,0,0,0,0,0,0,0,0,0,0,0,0,0,0,0,0,0,0,0,0,0,0,0,0,0,5.5101,5.5102,0,5.5127,5.5127,5.5127,5.5075,5.5074,5.5072,5.5071,5.5093,5.5095,5.5097,0,0,0,0,0,0,0,0,0,0,0,0,0,5.5006,5.5008,5.5101,5.5102,5.5102,5.5127,5.5127,5.5127,5.5076,5.5074,5.5072,5.507,5.5092,5.5095,5.5098,0,0,0,0,0,0,0,0,0,0,0,0,0,5.5041,5.5009,5.5101,5.5079,5.5078,5.5127,5.5127,5.5127,5.5076,5.5074,5.5071,5.5069,5.5092,5.5095,5.5098,5.5168,0,0,5.5108,5.5109,0,0,0,0,0,0,0,0,5.5039,5.5045,5.5082,5.5081,5.5079,5.5095,5.5102,5.5141,5.5077,5.5077,5.507,5.5068,5.5096,5.5098,5.5109,5.5169,5.517,5.5108,5.511,5.5112,5.5112,0,0,0,0,0,0,0,5.5037,5.5043,5.5111,5.5083,5.5081,5.5068,5.507,5.5109,5.51,5.5076,5.5073,5.5077,5.5094,5.5106,5.5109,5.5171,5.5108,5.5111,5.5113,5.5114,5.5293,5.5296,0,0,0,0,0,0,5.5038,5.5042,5.511,5.5112,5.5053,5.5071,5.5074,5.5093,5.5099,5.5098,5.5079,5.5074,5.5101,5.5105,5.5109,5.5194,5.5112,5.5115,5.5116,5.529,5.5294,5.5297,0,0,0,0,0,0,5.5036,5.5044,5.5109,5.5076,5.5083,5.5076,5.5097,5.5095,5.5106,5.5101,5.5099,5.5092,5.5099,5.5105,5.5155,5.5194,5.5116,5.5119,5.5287,5.5291,5.5295,5.5363,0,0,0,0,0,0,5.5033,5.5044,5.5071,5.5077,5.5085,5.5155,5.51,5.5097,5.5112,5.5106,5.5113,5.5112,5.5098,5.515,5.5158,5.5197,5.5122,5.5283,5.5289,5.5294,5.5358,5.5369,5.538,0,0,0,0,0,5.503,5.5088,5.5073,5.5081,5.5119,5.5158,5.5162,5.5146,5.5115,5.5142,5.514,5.5112,5.5188,5.5156,5.5164,5.5205,5.5281,5.5287,5.5293,5.5353,5.5367,5.5379,0,0,0,0,0,0,5.5085,5.5088,5.5071,5.5133,5.5146,5.5149,5.5183,5.5161,5.5182,5.5176,5.5154,5.5156,5.521,5.5212,5.5176,5.5275,5.5229,5.5238,5.5272,5.5285,5.5296,5.5295,5.5124,0,0,0,0,0,5.5105,5.5137,5.5137,5.5192,5.5199,5.519,5.5206,5.5193,5.5204,5.5209,5.521,5.5222,5.5249,5.5267,5.5291,5.5357,5.5359,5.539,5.54,5.5409,5.5417,5.5455,5.5469,5.5317,5.5317,5.5317,0,0,5.5145,5.5151,5.5172,5.5203,5.5211,5.5245,5.5195,5.5231,5.5256,5.5214,5.5263,5.5264,5.5275,5.5335,5.5361,5.5338,5.5459,5.5418,5.5425,5.5428,5.5463,5.5477,5.549,5.5322,5.5321,5.532,0,0,5.5236,5.5243,5.529,5.53,5.5314,5.5308,5.5319,5.5326,5.5326,5.5375,5.5345,5.5373,5.5419,5.543,5.5441,5.5538,5.5514,5.5546,5.5604,5.5641,5.5653,5.5663,5.57,5.5713,5.5554,5.5554,5.5554,0,5.5284,5.5334,5.5317,5.5357,5.5372,5.5337,5.5385,5.5395,5.5416,5.5427,5.5401,5.5461,5.5465,5.5528,5.5552,5.5561,5.5574,5.5546,5.5652,5.5663,5.5672,5.5707,5.572,5.5558,5.5558,5.5557,5.5557,0,5.5393,5.5429,5.5465,5.5489,5.5507,5.5551,5.554,5.5561,5.5547,5.5543,5.5594,5.5599,5.5625,5.5638,5.5623,5.5699,5.5685,5.5656,5.561,5.5691,5.5723,5.5736,5.5564,5.5562,5.5561,5.556,0,0,5.5519,5.5534,5.5548,5.5559,5.5573,5.56,5.5642,5.5669,5.5688,5.5704,5.5739,5.578,5.5755,5.5768,5.5753,5.5785,5.5865,5.5753,5.5753,5.5775,5.5951,5.5974,5.5989,5.5848,5.585,5.5852,5.595,0,5.5611,5.5686,5.5673,5.5746,5.5779,5.5747,5.5784,5.5797,5.5795,5.5822,5.5819,5.585,5.5812,5.582,5.585,5.5849,5.59,5.5841,5.5882,5.5883,5.5882,5.6006,5.603,5.6122,5.5963,5.5965,5.5966,0,5.5729,5.5751,5.5828,5.5839,5.5852,5.5886,5.5911,5.5937,5.5951,5.5947,5.5963,5.5943,5.5986,5.5939,5.5997,5.5958,5.5973,5.5975,5.5978,5.5983,5.5931,5.6015,5.6151,5.6165,5.5985,5.5984,5.5983,0,5.5816,5.5865,5.5918,5.5928,5.5941,5.5966,5.5973,5.5984,5.6001,5.6022,5.6034,5.6059,5.6073,5.6093,5.608,5.6047,5.6142,5.6093,5.6141,5.6141,5.6163,5.6162,5.6305,5.617,5.617,5.617,5.6169,0,5.5921,5.597,5.5958,5.5991,5.6045,5.6028,5.6082,5.6084,5.6095,5.6127,5.61,5.6131,5.6112,5.6141,5.6131,5.6183,5.6188,5.6187,5.6184,5.6191,5.6191,5.6202,5.6196,5.6173,5.6173,5.6172,5.6171,0,5.6028,5.6022,5.6078,5.6087,5.609,5.613,5.6136,5.6167,5.6163,5.6205,5.6214,5.6208,5.6242,5.6231,5.6266,5.626,5.6325,5.6313,5.6322,5.6319,5.6368,5.6365,5.6524,5.6545,5.6395,5.6397,5.6398,0,5.6096,5.6134,5.6147,5.6168,5.6177,5.621,5.6229,5.6214,5.6235,5.6254,5.6283,5.6314,5.6339,5.6393,5.6392,5.6419,5.6409,5.6463,5.6413,5.6419,5.6412,5.6411,5.6415,5.6473,5.6475,5.6476,5.6477,0,5.622,5.6215,5.6244,5.6273,5.6297,5.6318,5.6337,5.6355,5.6341,5.6366,5.6401,5.642,5.6457,5.6489,5.6514,5.6519,5.6497,5.6493,5.6506,5.6514,5.6518,5.6519,5.6351,5.649,5.6489,5.6488,5.6487,5.6487,5.6311,5.6344,5.6359,5.6393,5.6406,5.6424,5.6454,5.6456,5.6485,5.6516,5.6504,5.6545,5.6558,5.659,5.6599,5.663,5.6609,5.6627,5.6632,5.6638,5.6645,5.6512,5.6634,5.6634,5.6634,5.6633,5.6633,0,5.6435,5.6444,5.6475,5.6503,5.653,5.6507,5.6527,5.6551,5.6587,5.6602,5.6628,5.6669,5.67,5.6702,5.6731,5.6756,5.6746,5.6764,5.6763,5.6765,5.6661,5.6648,5.6771,5.6771,5.6771,5.6771,5.6771,5.6771,5.6503,5.6558,5.6555,5.6617,5.6624,5.6666,5.6679,5.6696,5.6709,5.6756,5.6783,5.6784,5.6794,5.6824,5.6852,5.6851,5.6864,5.6887,5.6883,5.6786,5.6772,5.6759,5.6747,5.6889,5.6889,5.6984,5.6985,5.6986]}]]